User: anonymous   Login
Location: Unspecified
(0.0000°N, 0.0000°E)
Time: 01:06:32
(UTC+00:00)
Language:

Kosmos-1655 - Orbit

View from above orbital plane
View from above orbital plane
View from above satellite
View from above satellite

Ground track
Ground track

The orbit data is extracted from the following two-line orbital elements,

1 15751U 85041A   21023.69108566  .00000021  00000-0  59805-5 0  9991
2 15751  82.9477  77.1371 0027258 161.9180 318.7124 13.71715362784791
Epoch (UTC): 23 January 2021 16:35:09
Eccentricity: 0.0027258
inclination: 82.9477°
perigee height: 973 km
apogee height: 1013 km
right ascension of ascending node: 77.1371°
argument of perigee: 161.9180°
revolutions per day: 13.71715362
mean anomaly at epoch: 318.7124°
orbit number at epoch: 78479

The dashed part of the orbit path shows where the satellite is in the earth's shadow,  

DLR